Find Starlink 5291

NORAD ID: 55273 Int'l Des: 2023-010 Owner: SPXS Country: US Constellation: starlink operational
LEOCIRCULAR

当前视图

正在加载3D地球...

About Starlink 5291

Starlink 5291 (NORAD 55273) is a starlink constellation satellite (v1.5) launched Jan 19, 2023 by SPXS of US. It operates in LEO, CIRCULAR orbit with a mass of 305.00 kg.

关于 Starlink 5291

正在加载描述...

即将过境

Passes for default location (London). Set your location on the main map for personalized predictions.

高度历史

Loading altitude history...

两行轨道根数

1 55273U 23010E 26171.32739308 .00000599 00000-0 57965-4 0 9999
2 55273 69.9989 145.5288 0003864 257.0839 102.9888 14.98339701188167
Epoch: Jun 20, 2026 • Age: 41 hours

当前状态

高度 574.2 km
速度 7.58 km/s
星下点 19.03°N, 34.5°E
发射日期 Jan 19, 2023
运行时间 3.4 years
类型 internet

技术详情

分类 Payload
质量 305.00 kg
干质量 290.00 kg
总质量 305.00 kg
长度 0.20 m
直径 2.80 m
跨度 9.00 m
形状 Box + pan
制造商 SPXS
平台类型 Starlink
阶段状态 In Orbit
所有者/国家 SPXS/US

Most Searched